Presure
194 190 173 182 186 182 183 183 180 182 178 193 190 198 179 154 151 151 181 163 136 87 104 89 96 87 118 94 90 108 95 177 155 106 159 154 96 175 168 176 174 171 171
197 194 191 183 182 180 139 147 88 91 147 139 180 182 122 113 83 121 94 96 97 94 89 96 155 89 183 200 172 177 194 192 183 166 198 173 182 170 168 171 183 185 193
206 192 198 191 187 183 76 182 186 188 182 173 181 108 87 147 89 92 89 95 86 86 178 181 184 182 191 184 178 184 188 187 190 167 169 146 184 184 145 173 189 198 170
183 194 193 191 173 171 174 171 177 183 181 176 99 170 179 176 170 183 179 192 178 162 180 168 181 178 188 165 176 179 179 170 208 189 189 150 194 164 142 194 196 195 140
221 224 194 190 178 172 170 173 176 176 176 175 154 174 176 179 182 157 182 173 169 153 169 174 189 192 174 182 138 178 189 150 178 162 176 183 175 194 144 137 177 185 214
178 171 184 178 166 164 165 172 172 171 176 177 183 184 186 191 182 167 184 192 175 134 166 172 200 161 177 189 154 149 166 178 197 195 171 197 151 170 168 168 176 152 159
214 215 230 231 237 197 191 167 165 186 187 189 197 181 182 158 155 207 141 190 153 166 166 172 177 157 183 165 139 174 146 175 181 132 128 164 187 174 127 183 175 185 181
246 252 261 233 220 230 229 196 247 208 233 206 194 202 204 207 194 190 173 197 149 175 160 198 166 136 189 184 171 205 159 185 149 167 167 141 190 181 181 189 192 154 173
282 290 213 165 171 169 162 168 163 195 189 154 197 207 174 196 184 185 191 194 163 193 182 177 175 176 147 197 186 166 203 142 171 178 172 153 174 169 181 145 189 170 203
272 328 310 333 336 331 272 166 164 161 160 160 216 215 202 194 203 197 144 153 155 196 200 196 125 196 209 192 138 187 137 195 144 169 126 182 138 127 135 180 173 208 161
308 310 315 316 202 323 324 328 330 175 158 160 162 162 165 209 202 194 196 194 187 192 173 142 197 139 220 198 135 168 123 137 171 189 129 181 136 188 154 186 202 199 162
294 296 298 299 300 306 313 317 318 326 328 283 245 197 188 151 211 208 201 198 165 196 146 144 198 183 143 155 156 172 175 123 185 136 154 163 125 181 176 193 191 193 191
303 299 297 289 227 285 302 326 329 312 313 346 329 186 204 148 143 201 214 136 163 139 178 143 199 141 198 200 129 127 160 126 189 185 194 180 116 197 163 189 190 174 151
320 284 308 301 301 315 310 311 322 336 334 302 347 378 317 256 243 207 136 168 163 205 132 202 201 199 156 192 198 192 191 196 194 191 193 191 157 174 181 186 193 186 190
295 294 295 293 299 307 317 321 323 178 334 335 322 346 385 323 269 212 192 183 177 202 166 188 214 202 201 195 181 191 192 166 181 123 120 176 190 137 192 197 209 204 176
283 287 288 295 285 290 293 302 306 329 328 328 329 317 338 344 232 210 195 242 196 221 241 229 235 185 208 145 176 142 191 190 191 172 187 180 185 191 196 191 188 186 187
281 287 277 277 277 284 293 292 311 326 315 322 324 333 323 341 364 301 299 259 242 245 235 228 224 221 170 159 205 203 201 196 190 183 168 173 202 178 199 199 198 187 179
269 274 276 275 279 288 298 320 335 322 313 312 320 321 326 327 361 326 321 183 258 239 230 239 149 224 192 208 214 184 184 221 206 200 193 195 201 201 202 201 190 184 183
280 276 281 290 304 314 344 337 332 326 321 321 329 329 338 380 372 329 305 318 322 269 245 233 237 235 218 227 222 200 199 200 214 204 184 184 208 211 188 185 186 185 188
298 346 341 350 336 322 337 334 321 314 325 342 339 360 361 338 302 314 304 299 308 312 311 249 242 232 232 225 215 212 208 205 200 198 197 198 197 194 192 193 197 191 198
349 338 329 312 310 371 315 299 299 298 324 321 319 318 302 313 300 295 305 292 298 302 318 306 256 244 236 227 226 222 215 213 209 208 206 203 203 204 202 199 201 203 206
329 309 304 317 333 317 305 292 306 300 310 313 291 281 286 281 295 283 286 286 286 294 304 311 316 289 263 243 237 231 227 223 224 222 211 216 216 213 211 214 216 216 215
315 309 313 324 331 310 305 287 289 304 308 298 294 281 306 287 282 282 285 281 280 288 293 299 307 310 311 315 313 255 247 241 239 237 235 230 228 228 227 227 228 230 231
303 294 301 317 315 356 317 283 288 276 287 302 281 285 276 281 281 279 280 282 276 277 287 287 290 289 299 302 304 304 306 310 312 312 309 298 300 284 281 299 299 296 301
296 289 288 293 316 303 302 280 288 288 294 297 292 294 289 280 283 282 287 289 295 292 275 283 282 285 293 297 295 289 291 291 293 294 294 294 292 292 293 287 283 282 282
314 294 290 286 281 290 294 293 296 317 293 287 284 283 276 278 287 288 291 293 298 289 301 292 293 299 291 341 345 302 287 281 278 273 268 269 271 273 271 269 268 267 266
Wind_Speed
73 71 59 63 64 62 62 64 63 63 61 63 59 57 56 54 53 52 55 50 43 37 46 38 43 38 44 44 43 45 47 49 46 40 44 43 37 44 44 43 44 46 46
76 74 72 66 64 64 53 53 42 42 55 47 58 60 46 44 36 47 46 47 49 47 45 48 53 43 48 48 51 49 51 51 50 47 48 46 50 45 44 46 47 46 47
79 72 76 71 69 67 30 67 69 69 67 60 70 48 43 57 42 44 47 54 46 42 59 58 57 59 54 56 54 53 53 55 55 45 47 53 52 51 51 49 49 46 49
64 74 73 71 58 58 60 63 64 68 66 64 44 56 66 68 60 70 64 67 60 52 62 56 63 61 63 50 52 55 54 46 55 54 54 51 57 52 52 49 49 48 54
82 85 76 73 64 60 61 64 67 67 66 66 57 65 67 69 67 55 68 60 58 53 58 61 69 67 58 60 48 52 58 48 52 50 51 52 53 54 53 51 51 50 48
67 66 68 64 60 60 61 65 67 67 71 72 75 76 77 81 71 61 72 71 63 56 61 64 71 56 60 72 56 47 50 56 63 63 49 59 54 52 51 53 54 56 56
81 83 88 87 88 80 78 65 65 80 81 85 88 76 76 58 52 76 58 78 54 61 62 65 68 61 73 50 50 61 53 57 59 53 53 49 63 56 53 59 55 58 59
84 86 90 88 83 88 88 79 91 88 91 92 86 91 90 92 87 83 74 88 59 68 64 83 61 56 80 70 60 77 50 67 57 60 54 58 67 62 63 67 67 62 61
82 81 74 69 71 69 68 70 68 78 83 62 89 94 71 90 81 84 89 90 71 82 77 75 73 76 63 83 74 66 78 58 69 68 62 58 68 63 67 62 69 60 74
78 68 75 74 77 82 87 72 70 69 71 69 95 96 94 91 96 94 59 66 60 91 91 88 56 87 88 82 57 72 59 80 61 63 60 73 61 58 64 68 68 78 68
62 64 67 68 73 73 76 80 84 72 68 72 72 70 69 98 96 92 96 100 88 93 74 65 95 60 86 90 60 71 59 59 76 81 64 78 62 80 64 82 85 82 67
62 63 64 65 67 70 73 76 80 83 85 93 101 84 82 62 100 102 100 100 73 101 61 60 98 89 63 63 74 75 78 62 82 69 70 76 69 76 79 89 87 81 84
62 61 60 63 63 69 70 68 68 80 84 70 88 80 88 66 64 94 108 58 77 58 87 59 103 62 100 100 60 61 76 59 91 84 89 82 66 90 75 88 90 74 71
54 60 57 61 64 63 65 68 67 66 70 84 65 65 95 108 104 99 63 78 75 108 54 107 107 107 71 100 104 98 96 102 99 91 93 90 69 79 88 90 96 90 93
51 54 55 57 57 60 59 55 62 72 66 66 77 63 59 90 109 93 86 87 82 100 78 94 115 109 111 105 92 101 102 77 86 74 60 91 98 81 100 103 101 103 79
51 54 55 56 62 63 65 64 64 62 65 67 67 78 66 76 74 85 90 109 89 104 115 113 118 97 117 62 94 65 107 107 105 94 95 89 96 102 108 102 104 102 104
53 56 58 61 64 66 65 66 69 63 65 66 68 67 69 63 65 94 105 113 110 109 112 112 114 116 80 76 111 109 114 114 114 99 81 86 111 90 106 107 108 104 102
55 59 63 64 66 68 68 67 61 64 64 65 66 68 65 66 54 76 82 75 112 108 109 112 70 112 95 111 114 98 100 125 120 120 115 116 118 116 114 112 107 105 104
64 64 67 70 69 65 51 51 51 55 58 62 62 62 61 49 46 65 83 78 80 114 116 113 113 116 112 115 115 107 107 109 117 114 105 105 118 119 107 106 108 109 112
63 49 49 38 37 37 37 29 29 28 33 32 36 35 33 36 62 61 74 79 76 79 82 120 112 110 112 112 112 113 113 113 113 114 114 115 115 112 111 112 117 116 119
25 24 22 28 33 28 20 32 29 28 20 22 21 25 28 38 49 60 63 75 72 75 67 83 117 114 113 113 113 114 114 115 115 117 117 116 117 118 118 117 120 121 122
14 19 23 23 17 24 26 21 25 19 21 27 24 34 44 51 48 62 67 71 71 66 61 61 64 95 114 117 115 115 116 116 117 119 115 120 120 119 120 123 125 125 125
10 9 16 12 12 28 24 17 16 14 20 29 34 44 29 45 51 55 61 67 68 62 61 60 60 63 66 68 75 116 119 119 120 121 122 121 121 122 124 126 128 128 129
2 5 8 2 6 15 32 19 18 20 14 30 36 37 41 40 46 53 59 59 63 62 57 57 60 64 64 65 69 72 72 73 74 76 80 91 89 103 108 92 95 98 92
2 4 6 9 17 18 26 24 26 21 22 19 18 29 28 33 41 48 48 52 49 50 56 54 57 58 58 60 64 70 72 74 75 76 79 80 83 86 87 90 93 94 93
3 5 7 7 8 11 14 15 17 14 17 13 16 19 24 31 33 36 37 39 40 46 43 47 50 52 55 44 42 57 68 73 77 80 82 84 85 86 88 90 91 92 93
Wind_Direction
244 245 248 249 249 250 252 253 254 254 257 255 256 251 255 261 262 263 262 265 266 271 264 277 273 276 277 280 279 278 279 271 274 279 273 275 284 279 280 280 281 281 283
243 244 245 249 251 251 253 254 258 258 256 258 260 261 256 262 264 264 264 264 267 270 275 273 270 278 266 263 269 272 268 268 273 273 266 277 274 279 280 282 282 286 287
244 246 244 247 248 250 257 255 256 256 259 258 256 258 258 259 259 265 265 266 273 271 268 268 267 269 265 265 270 271 271 270 271 277 280 274 281 282 280 283 284 284 282
250 247 247 247 250 251 254 256 258 258 259 259 256 255 258 258 264 264 268 263 267 265 269 268 271 271 267 269 272 269 269 273 264 275 276 273 277 274 280 279 284 285 287
249 249 249 249 249 250 252 255 258 260 259 259 257 261 260 260 260 259 264 263 262 261 264 267 268 265 268 269 268 276 275 269 273 271 277 279 279 276 283 281 286 287 285
248 250 249 247 246 248 250 253 256 257 260 260 260 260 261 263 262 259 262 260 261 260 264 268 261 265 261 271 270 264 271 277 276 276 271 277 271 278 278 279 283 281 281
250 251 253 252 251 251 250 254 255 254 256 258 257 259 260 257 251 253 253 264 256 262 264 265 267 266 269 272 265 274 266 278 278 276 279 270 280 280 282 283 281 283 282
256 256 257 255 253 251 251 250 247 249 244 250 255 256 255 255 262 264 260 265 254 260 262 266 264 263 269 272 267 267 268 268 268 276 275 278 278 281 281 283 283 280 282
264 261 256 253 251 250 252 252 252 250 251 256 250 250 258 256 260 263 264 265 263 265 264 262 263 267 268 270 271 266 268 268 271 274 276 268 279 280 280 280 283 280 284
266 267 262 265 265 263 256 251 252 252 255 257 246 245 249 253 253 254 251 255 252 264 264 264 263 267 260 266 262 266 265 268 268 276 278 279 277 277 282 282 283 279 279
267 267 266 265 258 264 263 262 259 254 254 257 258 260 258 246 250 253 254 260 265 264 259 262 266 261 254 268 265 265 274 268 272 271 278 279 288 281 272 286 283 285 278
271 267 265 264 264 262 261 260 259 258 254 248 246 252 249 259 244 247 250 254 258 263 255 259 264 265 260 263 266 269 270 276 267 277 272 279 280 282 283 283 286 284 289
275 271 267 265 261 262 262 265 262 256 255 255 248 250 248 259 260 245 245 260 256 260 260 259 264 262 266 267 261 266 268 264 273 273 277 275 286 279 279 284 285 284 284
272 273 268 267 268 271 269 266 266 267 263 252 255 255 241 243 241 246 263 260 260 249 258 254 257 262 265 266 267 271 272 272 274 276 276 279 278 282 281 281 281 281 281
276 275 275 274 274 273 272 270 273 259 262 258 250 256 258 241 240 246 251 255 257 249 265 253 248 255 257 264 267 268 271 273 275 270 282 278 277 270 279 278 277 279 286
279 277 276 271 269 269 269 271 274 269 262 256 252 247 252 244 249 247 249 240 252 245 243 244 244 251 253 272 260 271 269 272 273 272 276 280 281 280 280 284 288 291 291
282 277 277 276 276 276 275 274 277 260 257 256 252 252 248 250 244 239 238 240 241 241 243 244 245 246 259 265 256 258 259 263 271 279 280 279 274 280 276 277 277 283 288
287 284 281 278 278 279 277 274 262 255 252 253 252 248 246 244 246 238 241 255 241 243 245 244 269 247 254 254 253 265 266 255 259 264 271 273 272 273 274 274 279 282 283
285 281 280 280 278 275 268 264 258 255 254 253 251 249 247 246 229 235 239 242 243 240 243 245 244 245 249 249 251 260 261 261 259 263 272 274 267 267 276 279 280 281 281
287 277 274 272 272 272 267 244 238 252 256 242 242 237 217 214 225 232 239 241 244 245 243 244 246 249 249 251 254 255 257 259 262 265 267 268 270 273 276 276 274 277 277
282 272 274 273 277 263 218 246 240 255 244 225 186 183 205 217 223 232 238 241 244 247 251 249 246 248 249 251 253 254 257 259 261 263 265 268 270 270 272 273 274 276 277
287 282 282 287 269 217 222 241 256 253 229 168 170 222 209 222 223 231 237 240 244 250 255 257 258 251 250 251 254 255 257 259 260 261 265 265 267 269 272 273 274 274 275
316 316 307 298 258 226 228 226 252 204 209 191 194 219 216 220 227 235 239 240 244 249 252 256 259 261 262 262 261 256 258 261 262 263 264 266 268 269 270 271 272 273 274
334 2 359 24 324 228 210 197 198 233 240 198 206 214 220 227 230 238 242 244 246 250 255 257 259 260 262 263 264 266 267 267 267 268 269 268 268 268 269 271 271 272 272
49 66 37 52 106 145 158 190 221 240 246 216 220 222 222 234 240 244 251 256 261 261 256 261 260 260 262 263 263 263 264 265 266 266 266 267 268 268 268 268 269 271 272
36 43 86 64 45 108 141 136 128 196 179 177 206 207 226 242 250 257 266 271 271 264 268 268 269 269 269 268 267 267 268 269 269 268 268 269 270 270 270 271 271 272 273